Regional Weather Roundup
Issued by NWS

Home | Current Version | Previous Version | Graphics & Text | Print | Product List | Glossary On
Versions: 1 2 3 4 5 6 7 8 9 10 11 12 13 14 15 16 17 18 19 20 21 22 23 24 25 26 27 28 29 30 31 32 33 34 35 36 37 38 39 40 41 42 43 44 45 46 47 48 49 50
000
ASUS43 KLMK 290910
RWRKY
KENTUCKY REGIONAL WEATHER ROUNDUP
NATIONAL WEATHER SERVICE LOUISVILLE KY
500 AM EDT THU JUN 29 2017

NOTE "FAIR" INDICATES FEW OR NO CLOUDS BELOW 12,000 FEET
WITH NO SIGNIFICANT WEATHER AND/OR OBSTRUCTIONS TO VISIBILITY.

KYZ001>023-026-027-061>063-070>075-291000-
WESTERN AND SOUTH CENTRAL KENTUCKY

CITY           SKY/WX    TMP DP  RH WIND       PRES   REMARKS
PADUCAH        CLEAR     72  63  73 VRB5      29.97F
HENDERSON      PTCLDY    70  64  81 S7        30.01R
OWENSBORO      CLEAR     67  63  87 S8        30.01S
HOPKINSVILLE   CLEAR     71  63  75 S6        30.02F
BOWLING GREEN  CLOUDY    69  62  78 S6        30.04F
GLASGOW        PTCLDY    69  59  71 S3        30.06F
$$

KYZ024-025-028>034-038-045-046-053-291000-
NORTH CENTRAL KENTUCKY

CITY           SKY/WX    TMP DP  RH WIND       PRES   REMARKS
LOUISVILLE/SDF CLOUDY    73  57  57 S12       30.02R
LOUISVILLE/LOU CLEAR     69  57  65 SE3       30.03R
FORT KNOX      CLEAR     66  56  70 S7        30.02R
$$

KYZ035>037-039>044-047>052-055>060-089>105-291000-
NORTHEAST KENTUCKY

CITY           SKY/WX    TMP DP  RH WIND       PRES   REMARKS
LEXINGTON      CLEAR     68  56  65 S9        30.07S
COVINGTON      PTCLDY    64  57  78 S8        30.01F
FRANKFORT      PTCLDY    67  54  63 S7        30.04S
$$

KYZ054-064>069-076>088-106>120-291000-
SOUTHEAST KENTUCKY

CITY           SKY/WX    TMP DP  RH WIND       PRES   REMARKS
JACKSON        CLEAR     65  57  75 CALM      30.11S
LONDON         CLEAR     61  55  81 CALM      30.11F
SOMERSET       CLEAR     64  57  77 CALM      30.12R
MIDDLESBORO    CLOUDY    58  58  98 CALM      30.15S
MONTICELLO     SUNNY     68  61  78 NE7       30.12S
$$




USA.gov is the U.S. government's official web portal to all federal, state and local government web resources and services.